Terminal Aerodrome Forecast
Issued by NWS Medford, OR

Home | Current Version | Previous Version | Text Only | Print | Product List | Glossary On
Versions: 1 2 3 4 5 6 7 8 9 10 11 12 13 14 15 16 17 18
000
FTUS46 KMFR 190922 AAB
TAFMFR
TAF AMD
KMFR 190922Z 1909/2006 VRB05KT 6SM -SHRA BR FEW015 BKN035 OVC050
     FM191200 VRB03KT P6SM -RA FEW005 SCT015 OVC030
     FM191400 00000KT 4SM BR BKN005 OVC020
     FM191900 00000KT P6SM SCT020 BKN050=

USA.gov is the U.S. government's official web portal to all federal, state and local government web resources and services.